Location: Unspecified
(0.0000°N, 0.0000°E)
Time: 19:01:13
(UTC+02:00)

Daily predictions for brighter satellites

Satellite Brightness Start Highest point End
(mag) Time Altitude Azimuth Time Altitude Azimuth Time Altitude Azimuth
SMAP 4.3 20:16:10 10° S 20:20:38 47° WSW 20:25:05 10° NNW
METEOR-M 4.3 20:16:03 10° S 20:21:24 84° WSW 20:26:44 10° NNW
ATLAS CENTAUR R/B 1.0 20:18:18 10° SSW 20:21:59 89° ESE 20:25:35 10° NNE
Ariane H10+ 2.7 20:21:03 10° WSW 20:24:01 40° SSE 20:34:13 10° E
Cosmos 2074 Rocket 4.1 20:18:36 10° S 20:24:45 57° E 20:30:54 10° NNE
FENGYUN 3A 3.7 20:21:46 10° SSE 20:27:08 65° ENE 20:32:26 10° N
FUSE 4.0 20:22:53 10° WNW 20:28:16 86° NNE 20:33:41 10° ESE
Cosmos 1980 4.5 20:24:29 10° SSE 20:29:20 29° ESE 20:34:10 10° NE
Cosmos 2181 Rocket 4.4 20:25:28 10° NNE 20:31:31 45° E 20:37:31 10° SSE
USA 267 4.0 20:28:57 10° ENE 20:34:32 30° SE 20:40:06 10° S
SWIFT 2.5 20:31:37 10° WSW 20:35:50 58° SSE 20:39:50 11° E
ISS -1.4 20:35:22 10° WNW 20:37:59 22° SW 20:40:38 10° S
YAOGAN 1 2.7 20:33:51 10° S 20:38:10 79° WSW 20:42:29 10° NNW
Palapa 6 Rocket 3.6 20:33:19 10° WSW 20:39:15 59° SSE 20:43:36 12° E
Cosmos 2333 Rocket 2.2 20:33:46 10° S 20:39:28 74° ESE 20:45:07 10° NNE
Cosmos 2285 Rocket 4.0 20:33:37 10° N 20:39:54 80° ENE 20:46:12 10° SSE
NOAA 12 4.1 20:37:28 10° SSE 20:42:44 65° ENE 20:47:56 10° N
COSMOS 2428 3.9 20:39:05 10° SSW 20:44:35 48° WNW 20:50:03 10° N
Cosmos 1300 3.7 20:43:43 10° SSW 20:47:26 50° W 20:51:08 10° N
ALOS 3.0 20:45:01 10° S 20:49:34 55° WSW 20:54:07 10° NNW
Meteor 2-2 Rocket 4.5 20:46:13 10° SSE 20:51:42 48° E 20:57:13 10° NNE
Aureole 1 Rocket 2.9 20:50:37 10° NNW 20:54:02 73° WSW 20:58:27 10° S
Cosmos 2219 Rocket 2.8 20:49:31 10° SSW 20:55:07 61° WNW 21:00:41 10° N
Cosmos 2237 Rocket 2.2 20:51:20 10° S 20:56:48 53° ESE 21:02:13 10° NNE
TRAILBLAZER 4.5 20:55:11 10° SSW 20:59:37 89° SE 21:04:07 10° NNE
Envisat 4.4 21:00:05 19° ENE 21:00:05 19° ENE 21:03:15 10° NE
Cosmos 1500 Rocket 3.4 20:56:38 10° N 21:01:03 78° E 21:05:26 10° S
Skynet4D Del rocket 3.6 20:59:16 10° NW 21:04:35 66° NNE 21:07:24 28° ESE
ARIANE 5 DEB (SYLDA) 2.9 21:04:49 10° WSW 21:09:27 31° S 21:10:04 28° SSE
Cosmos 2263 Rocket 2.1 21:04:01 10° N 21:09:39 75° ENE 21:14:55 12° SSE
IRAS Rocket 4.2 21:04:26 10° SSE 21:10:00 85° WSW 21:15:30 10° NNW
Cosmos 1455 2.7 21:11:39 37° ENE 21:11:39 37° ENE 21:14:41 10° NNE
FREGAT/IRIS 3.7 21:20:25 33° N 21:20:25 33° N 21:22:12 10° N
OAO 3 Rocket 4.1 21:19:57 10° WSW 21:24:32 46° NW 21:27:44 18° NNE
GPS 2-12 Rocket1 3.5 21:24:08 10° W 21:28:42 51° SSW 21:29:30 45° SSE
SPOT 3 Rocket 4.0 21:24:57 10° S 21:30:06 62° WSW 21:35:12 10° NNW
Cosmos 2154 Rocket 4.4 21:25:26 10° SSW 21:31:42 66° W 21:37:54 10° N
Cosmos 1269 Rocket 4.0 21:27:27 10° NNW 21:32:45 84° WSW 21:35:40 28° S
ARIANE 5 R/B 4.0 21:13:46 10° W 21:35:48 78° N 21:37:51 43° ENE
Gblst 52 Del rocket 4.3 21:29:43 10° SW 21:36:10 81° NW 21:40:09 21° NNE
Maqsat 3 4.2 21:35:15 10° WSW 21:40:48 55° S 21:41:44 49° SE
Hubble Space Telescope 2.7 21:39:30 10° W 21:42:55 25° NNW 21:44:03 22° N
ATLAS 3B CENTAUR R/B 4.1 21:36:21 10° NW 21:44:45 22° N 21:46:54 19° NNE
SL-16 R/B 4.1 21:41:11 10° S 21:42:19 16° S 21:42:19 16° S
In-Cosmos 22 Rocket 3.9 21:43:34 10° N 21:48:35 78° NNE 21:48:35 78° NNE
Tiangong 2 3.8 21:47:16 10° WNW 21:48:38 20° W 21:48:38 20° W
Cosmos 1328 Rocket 4.4 21:52:32 29° SW 21:54:20 47° W 21:58:32 10° NNW
Cosmos 2341 Rocket 4.4 21:48:19 10° SSW 21:54:39 65° W 22:00:56 10° N
NOSS 3-1 (A) 4.4 21:50:40 10° NNW 21:59:12 70° WSW 22:03:53 30° S
BLOCK DM-SL 3.6 21:52:27 10° W 22:00:25 87° N 22:01:01 74° E
Meteor 2-15 4.4 21:55:10 10° N 22:00:35 72° N 22:00:35 72° N
Cosmos 2344 3.6 21:58:32 10° SSW 22:07:52 90° ESE 22:15:32 10° NNE
GEOS 3 Rocket 4.3 22:07:59 42° NNW 22:09:06 50° WNW 22:14:01 10° SW
USA 267 4.3 22:11:16 10° NNE 22:17:16 40° NW 22:23:18 10° WSW
Centaur D-1AR AC-48 3.4 22:15:56 10° WNW 22:20:10 34° WSW 22:20:10 34° WSW
Ariane H10+ 4.4 22:40:23 10° W 22:41:10 18° WNW 22:41:10 18° WNW
